Wind_Speed
11 12 12 12 14 14 11 7 4 4 5 7 9 10 3 6 4 2 6 8 4 6 6 6 11 12 11 9 11 13 12 9 6 3 1 5 10 13 12 13 15 16 16 15 13 11 11 10 10 10 10 10 11 11 11 11 11 10 10 11 11 11 11 11 10 10 10 9 9 8 8 8 8 8 8 7 7 7 7 6 6 7 7 6 6 6 6 5 4 4 5 6 6 6 6 6 7
12 13 14 13 13 11 6 5 5 5 6 8 8 5 1 3 2 5 12 9 6 8 4 5 11 11 12 10 9 10 11 12 10 6 5 11 14 13 11 11 13 15 15 14 13 11 9 10 10 10 11 11 11 11 11 11 10 10 10 10 10 10 10 10 10 9 9 9 9 8 8 8 8 8 8 6 5 4 5 6 6 6 7 7 7 7 6 6 4 4 5 5 5 5 6 7 7
14 13 14 13 10 8 6 5 6 6 6 8 4 3 1 2 7 11 11 8 7 7 3 6 11 8 8 10 9 8 7 9 10 7 6 9 9 8 10 10 12 14 13 13 12 9 9 10 10 11 11 11 11 11 11 11 11 10 10 10 9 9 9 9 9 9 9 9 9 8 8 8 8 8 8 7 6 4 4 5 6 6 6 6 7 7 7 6 5 5 5 5 6 6 6 7 8
14 13 15 13 7 7 6 5 6 7 7 7 3 7 7 7 11 10 10 9 7 5 4 6 9 8 10 10 8 8 7 6 8 7 5 6 7 10 10 9 12 13 12 12 11 9 9 10 10 11 11 11 11 11 11 11 10 10 10 9 9 9 9 9 9 9 9 9 9 9 9 8 9 8 8 8 7 6 6 6 6 6 7 7 6 7 7 6 6 6 5 6 6 6 6 7 8
14 14 16 12 6 3 4 5 5 7 7 7 3 6 9 10 10 9 11 10 8 6 5 5 7 7 11 10 4 4 5 4 8 8 7 9 10 11 10 11 11 10 11 11 10 9 9 10 10 11 11 10 11 10 10 10 9 9 9 9 9 9 9 9 9 9 9 9 9 9 9 9 9 9 8 8 8 8 8 7 7 7 7 7 7 7 7 7 7 7 6 6 6 6 6 7 8
14 15 15 11 6 5 5 5 6 8 6 8 5 7 10 10 9 10 10 8 9 8 7 7 6 8 9 8 8 7 5 2 4 6 8 10 11 10 10 12 10 9 11 10 9 9 9 11 11 11 10 10 10 10 9 9 8 8 8 8 8 9 9 9 9 10 9 9 9 9 9 9 9 9 9 8 8 9 9 8 8 7 7 7 7 7 7 7 7 6 6 6 7 7 7 7 7
14 11 9 8 5 4 6 6 8 7 3 7 7 11 11 9 8 8 7 5 6 6 7 8 8 9 7 5 7 10 11 7 3 5 8 9 10 11 11 11 10 9 10 12 10 9 10 11 10 11 10 10 9 9 9 8 8 8 8 8 8 9 9 9 9 10 9 9 9 9 9 9 9 8 8 8 8 9 9 9 8 8 8 7 7 7 7 7 7 6 6 6 7 8 6 6 6
14 8 4 5 5 4 6 6 8 9 1 5 9 11 10 9 7 6 5 4 3 4 7 8 7 8 7 5 5 9 13 12 7 8 9 10 11 12 11 10 11 10 10 12 11 8 10 10 10 10 9 9 8 8 8 8 8 7 8 8 8 9 9 9 9 9 9 9 9 9 9 9 8 8 8 8 8 8 8 8 8 8 8 8 8 8 7 8 8 8 7 7 6 7 6 6 7
13 8 4 6 6 5 7 7 8 10 3 9 11 10 10 9 7 5 4 4 3 5 9 9 6 6 6 8 8 7 10 10 9 9 9 10 10 11 12 11 11 11 10 10 11 9 10 10 10 10 9 9 8 8 8 8 7 7 7 7 8 8 8 8 8 8 8 8 8 8 8 8 9 8 9 8 8 8 8 8 8 8 8 8 8 8 8 9 9 9 9 8 6 6 6 6 7
8 7 5 5 6 7 8 8 8 6 1 7 10 11 11 7 5 5 5 4 2 4 9 9 10 7 7 8 7 4 4 5 7 8 7 9 8 9 11 11 12 11 11 11 11 10 10 10 10 10 10 10 10 10 9 8 8 7 8 8 9 9 9 8 8 8 8 8 8 8 8 8 9 9 9 9 9 9 8 8 8 8 8 8 8 8 8 9 9 10 11 10 7 6 6 7 8
5 6 5 5 6 7 7 7 7 3 4 5 9 12 10 6 5 4 3 3 3 7 9 7 8 8 8 8 4 2 2 3 6 7 6 8 8 9 10 10 11 10 13 13 12 11 10 11 11 12 11 11 11 10 10 9 8 8 9 9 10 10 10 9 9 8 8 8 8 8 8 8 8 9 9 9 9 9 8 8 8 8 8 8 8 8 9 9 9 9 11 11 9 7 7 7 8
5 5 5 6 6 7 8 7 7 2 4 6 9 11 9 7 4 2 2 6 9 13 14 8 3 3 6 6 2 2 4 4 5 6 6 6 6 8 9 10 10 9 11 13 12 12 12 12 12 13 12 12 11 11 11 10 11 10 10 11 11 11 10 10 9 9 9 8 8 8 8 9 9 9 9 9 9 9 9 9 9 9 9 9 9 9 9 9 10 9 9 11 10 9 8 8 9
6 6 6 6 7 7 8 6 6 5 5 8 10 9 8 7 3 3 5 12 15 12 9 7 1 3 6 5 2 2 3 4 3 4 5 5 5 7 8 10 10 9 10 11 12 13 13 13 13 13 13 13 13 13 13 12 12 11 11 11 11 11 10 10 10 10 9 9 9 9 10 10 9 9 9 9 10 10 11 11 11 11 11 10 10 9 10 10 10 10 10 10 10 10 10 10 10
7 6 5 7 7 8 8 6 5 3 5 9 10 8 8 7 6 9 12 14 14 7 1 6 3 4 6 4 2 2 3 2 2 3 5 4 5 6 8 9 10 12 13 11 12 14 11 10 11 12 12 12 11 12 13 12 12 12 12 11 11 11 11 12 11 11 10 10 10 10 11 10 10 10 10 11 11 12 12 12 12 12 12 11 11 10 10 11 11 11 10 10 10 10 10 9 10
6 5 5 6 7 9 6 5 7 2 7 9 8 7 10 11 12 15 14 11 9 5 2 4 5 1 3 3 3 3 4 3 1 4 6 4 5 6 8 9 9 11 12 12 13 15 11 10 11 12 12 12 10 10 12 12 12 12 11 11 11 11 11 11 11 11 11 10 10 10 11 10 10 11 11 11 12 13 13 12 12 12 12 11 11 11 11 11 11 11 10 10 10 9 9 8 8
4 5 5 6 6 7 3 2 6 3 7 8 7 6 9 12 14 13 8 7 6 5 4 4 5 3 4 5 6 6 5 4 3 6 6 5 7 7 6 7 8 9 11 11 13 16 13 11 12 12 12 11 11 11 11 11 11 11 10 11 11 11 10 10 9 9 10 10 10 11 11 11 10 10 10 10 10 12 14 13 13 13 13 11 11 11 12 11 11 11 11 10 8 7 7 8 7
4 5 5 7 4 5 8 9 9 3 5 7 5 4 7 9 11 10 7 7 6 6 7 6 7 8 8 8 9 7 4 4 3 6 7 6 7 4 3 6 7 8 10 11 12 15 15 13 12 12 11 10 11 11 10 9 8 9 10 11 10 10 9 10 10 9 9 10 11 11 11 11 11 11 10 9 9 10 13 14 14 14 14 12 10 11 12 12 11 12 12 10 9 7 6 7 7
3 5 5 5 4 6 7 9 8 6 5 7 5 5 7 6 5 7 6 6 6 6 7 8 9 10 10 10 10 7 3 3 3 6 8 7 5 1 2 5 5 6 9 11 13 15 16 15 13 12 10 10 11 10 10 9 8 8 9 11 9 9 10 11 12 11 11 11 11 11 11 10 9 10 9 8 8 8 10 12 12 13 13 13 12 11 12 13 12 11 12 12 10 6 6 8 6
4 6 5 1 6 5 7 8 7 7 5 4 5 9 10 5 2 2 1 3 5 5 6 8 10 10 9 9 7 6 4 3 6 6 4 5 4 1 2 5 6 7 9 11 13 14 14 15 13 12 10 10 12 11 10 9 9 9 9 11 10 11 12 13 14 14 13 13 12 10 11 11 9 10 9 8 9 9 10 11 10 12 12 12 13 13 12 15 15 12 11 13 12 6 6 10 8
2 4 6 3 7 5 8 8 7 7 6 4 6 10 9 4 2 2 1 4 4 3 5 5 8 8 8 7 5 4 3 5 8 4 2 5 5 3 4 6 7 8 8 10 11 10 11 13 13 12 11 11 12 12 11 11 11 11 10 11 12 12 13 14 15 15 14 14 14 13 13 12 10 12 12 11 11 11 11 12 11 13 14 13 14 16 14 15 18 16 13 14 15 10 8 9 7
1 2 5 6 7 5 8 8 7 7 5 5 6 9 6 3 2 2 2 2 3 2 3 3 7 7 7 9 6 3 2 6 8 5 3 4 3 3 5 6 8 9 8 9 9 9 9 12 14 13 11 11 11 10 11 12 11 12 12 12 12 12 12 12 13 14 15 15 15 14 13 12 11 12 12 12 12 13 14 15 15 14 16 16 16 17 16 16 18 17 16 16 16 15 13 10 7
3 4 5 7 8 6 7 7 7 6 4 6 8 7 4 1 2 2 3 2 1 3 2 5 8 5 5 7 7 5 5 7 7 7 6 2 3 3 6 8 9 10 8 9 9 9 10 13 13 12 12 13 12 10 11 12 12 13 14 14 14 14 13 13 13 13 15 17 16 16 14 13 13 12 13 13 14 15 15 16 17 15 15 17 16 17 16 16 17 17 17 16 17 16 16 14 10
2 3 6 6 6 5 5 6 7 6 6 8 7 5 2 1 3 5 5 4 4 5 4 7 8 4 4 7 7 6 7 7 5 5 6 4 2 3 7 11 9 8 9 10 10 10 11 12 11 12 14 13 11 11 12 13 13 14 15 15 14 15 14 14 14 13 17 18 17 17 16 16 16 15 16 16 15 16 16 15 16 15 15 16 16 16 16 16 17 17 17 16 17 16 16 17 15
1 1 3 3 4 5 6 7 7 6 7 7 6 5 3 2 2 3 5 6 5 6 6 7 8 7 7 8 8 7 6 5 2 5 6 4 4 5 9 12 10 9 11 11 11 10 12 12 13 15 14 13 11 12 13 13 14 14 15 15 14 14 13 13 14 14 18 19 18 17 17 17 17 16 17 17 16 16 15 15 15 15 16 16 16 16 16 16 16 16 17 16 17 16 15 18 17
2 2 4 2 4 6 6 7 6 6 7 7 7 5 6 5 4 5 5 5 5 5 7 6 8 10 9 8 8 7 6 3 2 3 6 7 7 8 9 12 12 11 11 11 11 11 13 14 15 15 13 13 13 13 14 15 15 14 15 15 14 13 13 13 13 14 16 18 18 17 16 16 16 15 16 15 15 16 15 15 16 16 17 16 16 17 17 17 17 17 17 16 17 16 15 16 16
3 3 4 2 5 5 3 6 6 6 5 4 6 5 6 6 4 5 5 6 6 5 7 7 8 9 7 6 6 6 4 1 1 2 7 7 6 9 10 12 13 12 11 11 11 13 14 14 15 14 13 13 13 13 14 14 14 14 16 17 15 14 14 14 13 13 14 16 17 16 15 15 15 14 14 14 15 16 15 16 16 16 17 17 17 18 18 18 18 18 17 17 17 16 14 16 15
6 5 5 4 6 5 3 7 6 6 5 2 5 6 7 6 2 3 5 7 7 6 8 8 5 7 6 6 6 6 4 5 7 6 6 6 7 9 10 11 13 12 11 12 13 14 14 14 14 13 13 12 12 13 14 13 13 15 17 17 15 14 14 14 13 13 14 16 15 15 15 14 14 14 14 14 15 16 15 16 17 17 18 19 18 18 19 19 19 20 19 18 19 17 15 16 15
8 5 5 6 6 5 5 6 4 3 3 3 6 8 7 5 2 5 7 7 6 6 10 9 4 5 7 6 5 5 4 9 11 9 5 6 7 9 10 10 11 12 12 13 14 14 14 15 14 13 13 12 14 15 15 15 15 18 18 16 14 14 14 13 13 12 14 17 16 15 14 14 14 14 15 15 16 16 16 17 18 18 19 19 20 19 19 20 20 21 21 19 20 19 17 16 15
8 5 2 4 4 3 3 5 3 2 3 4 6 6 6 5 5 7 7 6 6 7 10 9 6 5 6 5 4 5 7 9 8 7 4 6 9 9 10 9 10 11 12 13 13 13 13 13 13 12 12 13 16 17 16 16 18 19 18 15 13 13 13 13 13 13 13 18 19 15 15 15 15 14 15 15 16 17 17 18 18 19 20 20 21 21 21 22 22 23 23 21 22 21 20 19 16
7 6 2 1 1 2 4 7 6 4 5 5 3 2 5 6 6 7 5 6 10 10 10 9 6 6 5 5 5 5 7 6 5 5 6 9 9 10 10 9 10 11 12 12 12 12 12 12 12 11 12 15 16 17 17 16 17 17 16 14 13 13 14 13 14 15 14 18 19 16 15 15 15 15 15 16 16 17 18 19 19 19 19 19 21 22 22 23 22 22 22 22 22 20 21 22 20
4 2 1 3 1 2 4 7 8 5 6 5 1 1 4 5 7 8 6 7 10 10 10 8 6 6 6 6 7 5 5 5 4 5 9 10 10 10 10 10 10 10 11 12 12 12 12 12 12 11 14 16 15 16 17 15 14 15 14 13 14 15 14 13 14 15 15 17 18 15 15 15 15 16 17 17 17 17 18 19 20 20 19 18 20 22 22 23 23 23 21 21 21 18 18 20 21
2 1 1 3 2 3 5 6 7 5 7 7 1 2 5 6 8 8 7 8 10 10 8 7 6 6 7 7 7 6 6 5 5 7 9 9 10 9 10 10 10 10 11 11 11 12 13 12 11 12 14 15 15 15 14 12 12 12 11 12 15 15 14 14 15 15 15 16 16 16 16 16 16 16 17 18 17 17 17 17 18 19 21 21 21 22 23 22 22 24 23 22 23 20 17 17 18
4 4 2 4 4 3 5 7 6 5 7 8 4 3 4 7 9 9 8 8 10 11 9 8 8 7 8 7 7 7 6 6 7 8 9 9 10 10 10 10 10 9 10 10 11 12 13 12 12 13 14 14 12 12 12 10 10 11 11 14 17 15 14 15 15 15 16 15 15 16 17 17 17 17 17 18 18 18 17 17 18 19 21 22 21 21 22 21 21 23 24 23 24 23 20 19 17
5 4 2 3 5 4 4 6 8 7 6 6 6 5 6 8 10 10 9 8 9 11 11 10 9 8 9 8 8 8 7 7 7 8 9 10 10 11 10 10 10 9 9 10 10 12 12 12 12 12 12 12 9 8 9 8 10 13 14 15 17 16 15 15 15 16 16 16 16 16 16 17 18 18 17 17 17 18 19 20 20 19 20 20 20 20 20 21 21 23 24 24 23 22 21 20 19
3 3 3 2 4 6 6 5 7 9 6 5 7 7 8 10 11 10 10 9 9 11 11 10 10 10 10 9 8 7 7 8 8 10 11 11 11 10 10 9 9 9 8 8 10 11 12 12 11 10 10 9 6 5 5 6 9 12 13 13 15 15 15 16 16 16 15 16 17 16 16 16 16 17 17 18 19 19 19 19 19 19 19 20 21 21 21 21 22 23 24 23 22 21 19 19 21
6 6 3 2 4 5 7 7 7 8 6 5 7 9 10 11 11 11 11 11 9 11 11 10 10 10 9 9 8 8 8 8 10 12 12 11 11 10 10 10 9 9 8 8 10 10 11 11 10 10 8 7 7 7 7 8 9 10 12 14 15 14 15 16 16 16 16 16 16 15 17 17 16 16 17 18 19 18 17 17 18 19 20 21 22 23 22 22 23 23 22 21 21 20 18 19 23
10 10 5 6 6 2 5 8 8 9 5 4 7 10 11 11 12 12 12 12 11 11 12 11 11 10 9 8 9 10 9 9 12 14 14 12 11 10 10 9 9 9 7 9 10 9 10 10 9 10 8 8 9 9 11 12 12 12 12 13 15 14 14 16 15 15 14 13 12 12 13 15 16 16 17 17 17 17 17 17 17 18 19 20 20 22 21 20 22 23 21 20 20 20 19 21 23
8 8 5 7 5 4 7 8 10 10 6 5 8 10 11 11 12 12 12 12 11 11 12 11 12 11 10 9 11 11 9 10 11 12 15 14 13 12 10 9 10 8 8 12 11 10 11 10 9 9 8 9 9 9 11 12 14 16 15 13 13 14 14 14 13 12 13 14 14 14 13 13 14 16 17 17 17 17 18 18 17 16 18 18 18 21 21 21 22 23 22 21 19 20 19 20 23
6 3 3 4 3 4 7 8 10 8 4 5 8 8 9 10 11 12 13 12 10 11 12 10 11 11 11 11 11 11 10 10 9 9 11 12 14 15 12 10 11 9 9 13 12 10 10 9 8 7 8 10 11 13 13 11 11 13 15 12 12 14 14 13 12 13 15 16 15 17 16 16 16 16 15 16 17 17 17 18 18 16 16 17 17 19 21 22 23 23 22 21 19 19 18 19 22
2 1 1 1 3 3 3 6 10 7 3 6 6 5 7 9 9 10 12 11 10 12 12 11 10 10 11 11 11 11 11 10 9 9 8 12 16 15 12 10 10 10 11 13 12 10 9 10 8 7 9 12 13 14 13 11 10 11 12 11 13 13 11 11 14 15 15 14 13 13 14 14 15 15 15 16 17 16 15 17 18 16 16 17 16 17 20 21 21 22 22 21 20 19 18 18 20
2 2 4 2 6 5 4 6 9 8 6 11 11 4 2 6 10 10 10 9 9 11 12 11 10 9 10 11 11 10 11 10 10 10 10 13 14 13 12 10 10 10 11 11 12 12 11 11 10 10 11 13 13 13 10 9 9 9 9 9 12 11 8 10 13 12 12 12 12 12 11 12 13 14 16 17 16 15 14 16 17 17 16 17 17 16 18 19 19 19 20 20 20 19 17 17 18
2 2 3 3 7 6 6 6 6 5 4 10 10 3 2 7 10 10 9 8 9 10 11 11 11 11 10 11 12 11 11 10 10 10 10 13 14 12 11 11 12 12 10 11 12 12 12 12 13 13 13 12 12 11 10 8 7 9 10 10 13 13 11 12 11 11 12 11 11 10 11 12 12 13 15 16 15 14 15 16 16 16 16 17 18 17 17 18 17 17 18 19 20 19 17 16 17
2 2 2 2 4 7 8 5 2 2 3 8 8 2 3 7 9 10 11 11 11 11 11 12 11 10 10 10 11 11 11 11 10 10 11 14 15 13 11 11 13 13 12 13 12 12 14 15 14 14 14 12 10 11 10 9 10 12 12 13 14 12 10 11 11 11 10 9 9 9 10 12 13 12 12 13 14 14 14 15 15 15 16 16 17 17 17 17 16 16 17 18 18 18 18 16 17
1 3 1 1 1 5 6 4 2 2 3 7 8 3 2 4 8 11 12 12 13 12 12 13 12 12 12 11 11 11 12 11 11 10 10 14 15 13 13 13 14 15 15 15 14 14 15 15 15 15 14 11 11 12 11 11 14 15 13 14 14 13 10 9 10 9 8 7 8 9 10 10 11 11 10 12 12 12 14 14 14 15 15 15 16 16 17 16 15 15 16 17 17 16 17 16 16
1 3 0 2 9 11 4 3 2 3 1 2 4 3 1 2 6 9 11 11 12 13 13 13 13 13 14 13 12 12 12 12 11 11 11 14 15 15 16 15 16 16 15 16 16 16 15 14 15 14 13 12 12 13 12 12 14 13 13 13 13 13 12 11 9 8 7 7 6 8 9 9 10 10 10 11 11 11 12 13 13 14 15 15 15 15 16 15 14 14 16 16 16 15 15 15 15
0 0 6 8 11 10 4 2 1 2 2 3 5 6 3 2 4 6 9 9 10 11 12 13 13 13 14 14 13 12 12 12 11 11 13 15 16 17 19 17 17 17 15 17 18 17 16 15 15 13 12 13 14 13 12 12 12 12 12 11 12 13 12 11 9 7 6 6 7 7 7 7 9 9 8 9 9 10 11 12 12 13 14 14 14 14 15 15 14 14 14 14 14 14 14 14 14
3 4 6 4 4 5 3 2 1 1 3 4 7 9 5 3 4 4 6 7 9 11 10 12 14 14 14 14 14 13 11 11 11 11 14 16 16 18 21 18 18 18 16 17 18 16 15 15 14 13 12 13 13 12 12 12 11 12 11 10 10 11 11 10 9 8 6 6 8 7 5 5 7 8 8 8 7 8 10 11 11 12 13 14 13 13 14 14 14 13 13 12 13 14 13 13 14
5 5 2 1 0 2 2 2 2 2 2 2 8 10 5 2 3 5 8 8 8 10 11 13 15 15 15 13 14 14 12 11 12 12 14 15 14 17 20 18 19 18 16 17 17 16 15 14 14 14 13 13 12 11 11 11 11 11 10 9 9 10 11 11 10 8 6 7 7 6 5 5 6 7 8 7 7 8 9 10 11 11 12 13 13 12 12 13 12 12 12 11 12 14 13 12 13
4 4 2 2 1 0 1 1 0 2 2 3 4 8 5 1 1 5 9 8 10 11 11 13 16 15 15 15 14 13 12 12 13 12 13 13 13 17 19 19 19 18 16 17 18 17 15 14 15 13 13 13 11 11 11 11 11 11 9 7 7 9 8 8 8 6 6 7 5 5 6 5 5 6 6 7 7 8 9 10 11 11 11 12 12 11 11 12 12 11 12 11 10 12 13 12 12
0 3 2 2 2 3 2 3 2 2 3 5 2 5 4 2 2 5 8 7 11 12 9 10 14 14 14 15 15 12 11 12 13 13 13 13 14 17 20 20 19 18 17 17 18 19 16 14 15 14 13 13 12 11 11 11 10 10 10 8 6 6 5 5 4 3 5 5 3 4 4 4 4 5 5 6 7 7 8 9 9 10 10 11 11 10 10 10 11 10 10 11 9 10 11 12 12
1 4 1 1 1 2 1 0 1 1 0 1 3 4 4 2 3 7 8 7 11 13 10 6 9 12 12 13 14 13 12 11 13 14 13 14 16 18 20 21 19 19 19 18 18 19 16 15 15 15 14 13 13 12 11 11 11 9 9 8 7 7 6 4 2 2 4 4 2 2 3 3 3 4 5 6 6 7 8 8 9 9 9 10 10 10 9 10 10 9 10 11 9 9 10 11 12
3 4 2 1 3 3 1 3 3 1 2 2 1 2 1 2 5 7 8 9 10 13 14 10 10 12 12 12 12 13 12 11 12 13 13 15 18 18 19 20 19 19 20 19 18 18 17 16 15 15 15 14 14 13 10 10 11 10 8 6 6 6 6 5 3 1 1 1 1 1 3 3 3 4 5 6 5 7 7 7 8 9 9 9 10 10 9 9 9 9 9 10 10 10 9 10 11
2 2 3 3 5 4 2 3 5 1 3 1 2 4 3 3 4 4 5 5 5 7 14 14 13 13 12 11 11 12 12 12 12 13 13 16 18 18 19 20 20 20 20 19 19 20 20 18 16 16 15 14 14 14 12 10 10 10 9 7 5 4 4 4 4 2 2 3 3 1 0 3 5 5 6 6 6 7 7 6 7 8 9 9 8 9 9 9 9 9 9 9 10 10 9 10 10
2 1 4 6 5 3 1 2 3 0 3 2 4 5 4 3 3 3 3 3 1 7 10 13 13 14 13 11 11 12 14 14 14 15 15 17 18 18 19 20 20 21 21 20 19 20 20 19 17 17 16 15 15 15 14 12 12 11 11 10 8 7 6 6 6 5 5 5 4 3 3 5 7 6 6 7 7 7 7 6 6 7 8 8 8 8 8 9 9 8 8 9 10 9 9 10 10
5 3 3 4 2 0 1 2 3 2 2 3 4 4 2 1 3 3 2 2 3 5 5 10 13 14 13 12 12 13 14 14 13 14 14 15 17 18 19 19 21 22 21 20 19 18 19 18 17 18 18 17 15 14 14 13 13 12 12 11 10 9 8 7 8 7 6 5 4 4 6 7 7 7 7 7 7 6 6 6 6 6 7 7 7 7 7 7 8 8 8 9 9 10 10 10 11
6 4 2 3 2 1 2 3 3 4 3 3 5 5 2 1 4 6 5 4 3 2 4 6 9 11 10 11 13 13 12 13 13 13 13 14 17 19 19 19 21 21 21 21 20 19 20 20 19 19 20 19 16 14 14 14 13 13 13 13 12 11 9 8 8 8 6 5 4 6 9 8 8 8 8 8 7 6 6 6 6 6 6 7 7 7 6 6 7 7 8 9 9 10 10 10 10
3 2 0 2 2 3 4 2 1 3 3 2 2 4 2 3 5 5 7 6 3 3 6 4 4 8 9 10 12 12 11 12 12 13 13 14 18 20 19 19 21 21 20 21 21 20 20 20 18 18 19 19 17 15 15 14 14 13 13 13 13 12 11 8 7 8 6 4 7 10 10 10 9 9 8 8 8 7 6 6 6 6 6 6 6 6 6 6 6 7 7 8 9 9 9 10 10
5 3 1 1 1 3 3 2 2 1 2 4 1 4 2 3 3 1 3 7 5 5 6 7 4 4 6 8 10 11 12 11 11 11 12 15 17 19 20 20 20 21 21 21 22 20 20 21 19 18 20 19 17 16 16 15 14 13 12 12 11 11 10 9 7 7 8 8 11 12 11 10 10 9 8 8 7 7 6 6 6 7 6 5 5 5 5 6 6 7 7 7 8 8 9 10 10
Wind_Direction
221 232 244 257 262 264 266 253 252 232 232 254 258 264 277 50 57 309 38 70 79 57 28 42 44 46 76 84 92 74 48 40 31 18 60 97 92 95 104 110 119 120 112 108 103 97 95 95 94 90 86 81 80 78 76 76 72 71 68 65 62 60 60 60 60 59 60 58 54 53 51 53 58 56 52 32 22 27 22 23 21 14 15 17 18 16 17 16 20 26 29 30 26 24 12 6 12
219 237 245 252 255 257 266 237 252 258 239 252 254 263 95 65 52 43 49 58 49 57 28 52 62 67 94 95 93 79 54 49 63 79 97 109 96 89 96 99 108 107 102 99 94 91 92 94 91 90 87 83 81 80 79 77 75 73 70 68 65 63 63 65 65 64 62 60 56 52 49 48 51 54 60 64 52 34 23 24 22 17 15 13 13 11 13 14 6 355 0 6 10 11 359 354 358
225 254 257 247 240 239 264 248 251 272 263 266 270 41 357 299 56 65 60 58 43 47 22 65 61 43 78 77 63 67 71 61 71 92 107 109 92 89 101 98 101 102 99 95 93 90 87 88 88 88 86 84 81 80 80 77 76 74 72 71 69 68 67 67 64 61 58 56 54 49 48 45 44 47 50 61 68 60 45 35 27 24 21 17 16 13 14 15 8 353 346 346 353 354 349 345 345
229 256 266 257 237 222 249 252 245 266 273 277 309 40 21 29 57 66 60 54 44 38 4 69 70 41 60 68 70 76 71 60 62 82 102 93 100 115 112 104 102 102 99 92 91 89 87 90 89 89 87 86 84 81 80 77 76 73 71 71 70 70 67 64 60 56 53 50 51 49 47 43 42 43 44 49 53 54 50 42 35 32 30 25 22 17 15 13 10 6 357 351 352 350 344 343 342
235 253 261 256 253 248 257 259 253 252 259 277 289 46 41 45 55 63 58 49 38 38 12 45 89 74 63 49 48 70 45 51 59 69 101 105 111 119 115 108 103 102 99 89 89 91 93 95 93 92 90 86 85 85 81 77 75 72 70 68 69 68 65 63 59 55 53 50 48 47 45 43 43 41 45 47 47 49 47 44 39 34 30 26 25 21 16 14 11 7 3 356 350 341 334 338 341
237 251 250 243 263 298 281 264 260 248 256 289 298 60 63 54 52 58 57 50 37 34 26 39 88 99 83 59 49 47 33 70 67 62 94 109 111 117 113 104 100 98 100 98 96 98 97 93 93 94 91 87 84 83 79 78 76 74 73 71 70 67 65 62 60 58 52 51 47 45 44 43 43 43 45 45 46 45 44 44 40 33 27 23 19 16 11 9 7 3 4 352 339 334 328 329 336
233 244 233 225 245 268 262 260 264 262 313 332 360 52 60 60 60 62 56 45 29 24 32 50 93 102 92 89 67 48 48 63 71 63 86 105 107 110 104 102 109 101 100 104 98 97 97 93 92 92 90 87 83 81 80 80 78 78 76 71 67 63 62 60 58 58 53 51 47 45 43 42 42 43 44 43 45 43 42 39 36 32 25 21 14 8 1 354 348 344 352 349 345 346 342 334 335
234 248 238 235 242 229 245 254 261 264 243 65 56 56 47 47 52 56 56 40 21 31 36 44 83 94 69 79 90 59 55 61 77 86 93 101 103 113 108 107 114 102 100 103 99 95 94 92 89 88 87 87 84 84 82 79 78 76 73 66 63 60 58 58 56 55 54 52 48 48 44 45 45 43 44 43 44 42 41 36 33 31 26 24 16 11 4 358 349 338 335 332 342 351 348 340 335
230 238 241 253 256 242 243 249 255 260 217 94 83 74 56 45 42 34 35 44 30 44 46 38 55 93 87 79 89 74 56 61 82 89 96 98 103 124 118 113 115 108 106 103 99 93 87 89 89 88 85 83 81 79 78 78 76 70 68 64 60 57 55 53 53 54 54 53 50 50 48 49 48 46 47 45 46 42 39 36 32 31 27 22 15 11 7 3 359 353 345 329 322 337 343 337 334
223 228 239 257 261 263 251 248 250 245 152 82 84 79 65 46 38 28 24 45 28 58 62 54 63 95 110 82 79 65 39 65 84 83 92 97 106 120 113 120 130 125 121 113 104 96 90 91 89 88 83 80 79 77 78 78 78 73 69 65 60 56 56 54 51 54 55 55 52 52 51 50 50 49 50 49 49 45 40 37 32 29 23 18 13 10 7 2 359 356 357 350 328 325 337 338 335
228 218 235 259 253 263 256 260 266 210 115 85 92 86 75 55 38 25 27 38 15 54 54 48 74 94 95 74 63 69 59 94 100 94 96 101 110 116 116 127 131 126 124 122 116 111 105 96 89 87 83 81 81 81 81 82 81 77 71 65 63 59 59 59 55 56 58 59 57 57 55 51 52 51 54 51 48 46 42 37 32 30 25 25 21 17 15 10 7 358 357 2 357 345 343 345 344
243 223 222 251 254 259 262 280 311 348 84 81 92 89 86 83 55 338 9 35 25 44 36 21 93 112 86 80 72 107 89 87 99 104 107 110 105 111 123 128 125 119 118 120 122 120 112 102 95 90 87 84 82 83 82 81 78 73 70 66 65 64 63 63 59 60 60 62 60 59 58 54 53 53 54 52 50 48 45 43 39 37 34 31 28 23 21 17 15 11 3 4 8 6 360 358 355
241 242 240 253 260 267 276 293 332 349 33 67 84 83 85 94 75 337 33 50 40 46 27 355 59 89 83 101 135 137 95 72 71 95 106 112 104 109 120 123 129 125 115 117 124 126 116 109 106 98 92 84 79 79 78 76 75 72 72 71 70 70 67 66 64 62 59 61 62 61 61 58 57 55 53 52 53 53 49 46 41 39 36 32 30 28 25 23 19 16 12 9 8 8 5 5 3
233 246 264 268 270 274 283 284 291 345 54 76 87 88 84 68 42 35 47 59 45 47 301 328 10 91 94 116 157 142 126 95 66 96 88 88 107 112 110 110 119 124 123 120 117 117 110 106 105 100 97 88 76 74 75 73 73 73 73 74 74 73 70 68 65 58 57 62 61 58 60 61 63 60 54 53 52 51 46 41 39 36 34 32 31 29 27 24 20 16 12 8 5 5 6 5 6
250 267 278 270 269 268 252 245 276 352 81 77 82 88 79 48 41 52 52 68 51 43 143 5 6 108 122 149 170 136 134 131 96 98 82 78 93 90 94 91 93 106 117 117 110 109 107 105 102 98 99 95 89 81 78 77 74 73 74 75 74 73 70 69 64 54 52 57 55 52 55 60 64 61 56 54 46 40 37 32 31 29 26 26 26 25 22 19 16 13 6 3 1 2 7 4 2
267 283 278 255 261 289 306 2 338 19 89 74 81 91 82 56 53 70 71 97 80 53 95 55 30 75 97 116 133 127 126 126 120 106 87 58 50 55 74 76 74 80 89 96 105 110 107 105 100 95 97 95 98 93 80 79 79 78 76 73 72 69 68 68 60 54 53 51 51 54 57 60 56 52 55 57 45 33 32 33 33 30 27 26 28 25 20 17 16 12 7 5 4 1 2 0 358
242 256 257 254 271 349 357 16 14 26 97 86 94 82 85 78 72 93 95 92 93 65 76 77 65 80 91 101 115 122 123 120 112 92 80 54 49 55 79 64 61 68 70 73 87 97 93 91 85 81 87 86 89 88 77 75 78 84 75 67 66 57 58 59 49 50 56 48 47 48 50 56 51 44 43 45 46 34 29 33 36 32 29 26 22 19 16 13 8 6 6 3 1 356 342 348 357
243 249 247 272 339 18 9 15 14 12 56 84 85 43 66 82 85 115 99 76 100 92 86 93 87 85 95 105 116 124 133 131 72 56 61 65 68 48 117 77 64 68 65 64 70 78 84 89 89 86 88 81 79 73 66 65 62 70 64 61 64 48 50 55 49 48 42 37 44 43 36 40 46 43 31 19 27 30 22 24 30 28 26 23 9 1 7 4 359 355 360 359 353 348 326 323 329
245 272 261 331 16 24 26 16 18 22 28 66 75 59 68 68 41 113 148 121 129 108 104 111 104 98 99 102 106 113 136 128 69 54 57 103 123 234 133 97 86 85 71 67 69 70 80 88 93 95 85 71 72 67 59 56 53 60 55 52 55 49 52 52 50 50 37 34 42 44 36 34 36 36 29 14 18 24 15 10 21 19 15 19 5 359 0 356 353 343 347 353 346 343 329 324 318
239 287 272 16 27 31 35 15 24 31 7 18 72 76 77 72 42 333 272 153 163 119 114 124 117 115 113 108 85 79 119 92 79 94 160 122 144 182 123 103 93 93 79 75 73 70 79 86 89 87 77 66 62 57 58 60 58 62 57 53 54 52 53 50 49 48 40 37 37 35 35 37 37 32 31 28 26 22 12 7 19 16 8 13 6 5 5 354 353 347 348 351 343 341 341 345 341
315 302 290 0 2 12 33 18 24 25 7 22 64 84 79 45 40 304 293 194 195 135 110 103 117 126 118 116 110 105 115 85 94 130 117 96 163 161 107 104 103 102 94 88 83 72 73 82 86 80 73 72 65 59 63 63 60 60 54 52 54 52 54 54 53 50 44 41 37 31 32 36 38 34 31 32 29 24 19 16 23 20 10 15 10 6 7 358 357 356 357 354 347 345 343 355 354
320 317 343 7 351 1 28 24 25 16 26 42 54 83 96 30 43 15 348 299 329 92 98 88 109 134 113 113 118 117 96 88 114 129 117 166 191 125 86 89 100 103 101 97 89 78 77 81 82 78 72 72 73 74 71 63 60 59 53 47 45 42 45 48 49 53 52 48 39 32 30 31 31 29 28 34 32 27 26 20 21 21 13 15 12 6 6 0 0 358 358 354 348 348 343 349 356
296 348 15 5 353 13 31 36 31 16 37 51 57 87 123 164 64 31 37 56 48 69 85 79 97 126 104 97 100 96 83 93 133 118 113 167 140 96 103 101 106 107 100 96 93 85 84 81 75 77 76 73 74 76 73 66 59 56 53 49 43 38 40 40 40 50 55 50 41 33 29 29 31 29 27 34 35 28 28 22 19 21 17 15 12 9 7 4 4 360 359 356 351 353 346 347 358
274 28 40 4 16 41 43 50 49 42 51 58 67 82 63 41 78 48 62 81 78 85 75 63 86 97 76 70 74 73 68 81 112 80 97 153 147 147 136 122 119 106 96 95 96 93 86 81 74 74 73 71 69 68 67 65 61 54 51 46 41 40 42 42 39 44 48 44 40 34 30 29 30 31 28 30 33 29 26 23 21 21 20 17 16 14 11 10 9 5 4 1 359 359 349 350 357
21 68 83 48 57 57 54 66 63 57 57 64 72 69 57 64 96 93 91 99 96 88 78 71 84 84 70 68 78 73 57 35 27 98 147 184 168 142 124 113 105 95 95 100 102 95 85 82 79 77 74 71 68 64 60 59 59 56 53 47 40 37 36 46 45 40 42 39 37 34 31 31 30 31 30 28 32 30 26 26 26 25 24 21 21 19 15 15 14 11 10 7 6 1 355 358 357
73 91 94 101 91 77 76 81 70 66 67 80 89 83 81 98 117 98 103 113 99 82 85 88 86 88 85 84 97 106 113 148 286 179 178 179 143 114 102 97 93 87 89 96 99 92 87 84 81 78 75 72 69 68 66 62 57 51 53 49 41 35 30 45 51 46 51 45 38 36 35 35 33 33 31 32 36 33 30 31 31 31 29 24 24 23 20 20 18 14 14 11 8 2 5 5 358
106 117 124 132 107 98 90 84 81 79 76 81 94 92 105 133 165 97 107 103 104 116 102 95 96 106 109 102 115 127 135 190 195 183 172 145 111 97 92 90 91 92 88 86 89 87 87 85 81 78 74 71 68 67 67 61 55 53 53 47 42 39 33 42 48 46 59 57 44 38 38 39 38 35 33 39 44 39 37 38 36 34 31 26 23 26 24 23 21 17 14 12 6 4 12 11 4
113 134 154 129 109 111 99 97 111 97 83 89 103 104 111 129 103 89 109 97 99 117 103 103 117 117 115 118 134 134 159 211 187 157 141 115 106 96 90 90 93 94 89 87 91 89 86 83 79 76 69 65 61 60 57 45 47 56 53 47 44 45 41 43 46 45 58 63 53 42 40 40 41 39 36 44 50 46 43 42 40 36 33 27 22 27 28 25 24 20 17 14 9 10 15 17 13
115 99 107 112 105 121 127 130 145 129 124 133 133 119 88 91 89 90 103 112 122 120 111 120 132 120 116 130 153 148 167 194 161 127 127 110 101 95 90 91 95 95 92 91 92 90 88 86 81 77 71 68 62 58 54 43 46 53 52 47 43 49 50 40 40 44 56 63 54 45 44 43 45 45 42 50 55 51 46 44 41 37 35 32 27 30 31 27 26 22 19 14 11 15 14 14 17
105 86 75 193 127 158 161 146 152 144 135 149 177 136 80 86 106 106 107 131 137 131 127 134 136 131 136 152 154 150 154 150 115 106 120 110 97 93 88 84 88 92 95 92 89 87 88 87 82 77 71 70 65 58 56 50 47 49 52 47 38 50 57 45 41 42 49 60 55 48 47 48 49 47 48 55 58 53 49 44 40 37 35 34 33 33 32 28 24 20 18 13 11 16 14 10 9
76 51 194 204 166 166 172 155 164 157 145 165 251 48 117 117 125 125 130 142 138 131 130 136 143 147 151 154 147 148 145 128 117 109 105 102 96 92 88 84 84 88 92 90 89 88 85 85 83 74 68 66 64 62 59 54 51 51 55 50 40 49 57 52 51 48 47 55 57 52 50 54 53 51 53 57 58 54 52 49 45 40 33 32 35 34 32 27 21 15 12 9 5 9 16 12 5
113 282 182 188 219 177 180 180 181 162 148 158 119 86 128 134 137 137 145 152 141 132 133 140 154 158 153 152 148 145 136 126 128 117 105 102 100 94 89 85 82 84 90 93 93 93 88 85 83 74 70 67 62 63 61 60 63 58 61 67 58 50 54 56 56 56 53 53 56 55 55 57 56 55 56 56 57 54 51 52 50 44 37 32 33 34 31 25 18 13 9 5 357 356 10 14 8
169 227 185 183 221 195 183 189 181 156 145 152 153 140 134 139 143 146 156 165 154 143 146 155 160 163 157 154 151 146 141 141 136 125 115 106 100 92 87 84 81 80 85 90 93 94 91 85 80 73 69 67 63 65 66 69 74 64 61 74 71 55 51 58 57 58 59 57 58 59 61 60 56 57 60 58 56 52 46 45 46 43 39 36 33 32 29 21 17 14 9 6 360 359 6 8 12
182 210 208 193 214 200 179 181 169 159 159 166 171 156 139 144 147 152 162 180 175 152 150 161 164 165 161 155 154 151 148 145 138 128 120 108 100 92 87 84 85 83 83 93 98 97 93 85 79 73 70 69 67 71 77 85 89 79 69 65 68 62 55 57 58 57 60 63 62 62 64 64 62 61 60 59 57 54 46 42 41 37 34 33 31 29 26 21 21 19 11 6 6 6 3 4 16
155 162 189 197 213 207 185 182 170 163 170 172 161 139 134 146 152 159 169 187 186 156 153 162 162 163 159 155 153 149 147 145 142 135 124 111 101 96 92 87 84 84 85 95 98 94 92 89 85 79 75 72 72 76 79 89 87 83 82 75 70 67 60 59 61 59 60 68 69 66 65 64 65 61 56 53 52 53 49 44 41 35 30 28 27 25 22 23 24 22 13 5 8 9 2 9 20
93 93 124 190 210 203 179 182 165 152 163 165 149 136 141 151 157 164 170 184 186 161 159 161 158 162 163 160 152 153 154 147 148 144 130 111 101 96 92 86 81 83 90 97 94 95 97 98 93 83 74 59 57 59 51 67 76 69 77 85 82 78 73 66 65 64 65 74 78 77 77 74 71 64 56 53 48 47 45 43 41 35 30 27 26 22 19 26 24 20 15 5 7 7 2 18 20
118 103 133 193 200 178 166 173 145 136 155 165 151 142 147 156 161 168 169 179 187 170 164 163 163 165 166 164 154 158 157 149 158 148 126 116 115 109 96 92 94 91 96 99 96 99 102 101 94 84 73 53 50 60 56 50 53 51 58 71 70 70 76 73 73 74 71 76 77 80 86 85 84 78 67 60 50 41 37 36 37 36 32 28 28 22 17 26 25 19 16 10 11 5 1 19 20
111 116 167 180 168 144 165 166 139 144 163 159 158 149 148 158 163 168 169 178 187 177 170 169 168 162 158 165 161 158 157 159 162 140 128 139 137 120 106 104 105 98 97 100 98 97 97 97 92 87 84 69 59 72 73 47 37 47 60 71 70 64 66 69 76 79 70 64 55 54 62 61 68 73 67 61 51 41 35 30 31 39 36 27 27 23 18 24 25 21 16 13 15 8 3 16 18
83 113 184 169 142 129 152 155 141 151 173 157 165 155 146 156 159 164 174 181 185 178 176 174 173 163 154 163 162 159 163 160 150 134 139 143 124 112 108 101 103 108 106 103 103 101 99 100 96 97 99 83 68 73 79 63 47 55 63 79 95 87 80 84 86 81 73 68 57 52 55 50 51 55 52 55 51 41 37 29 25 35 38 29 26 22 19 21 24 23 18 16 18 12 8 11 15
65 85 245 179 115 127 158 158 147 152 156 132 145 149 140 151 155 169 184 183 178 177 176 173 175 170 162 161 160 163 162 148 144 143 125 106 104 107 107 106 116 125 118 114 120 119 109 108 105 102 97 87 81 82 83 81 77 75 70 77 97 98 104 107 92 82 78 80 76 64 61 57 55 51 44 49 49 39 38 32 24 28 33 32 30 25 21 20 23 24 19 17 19 16 8 5 12
253 187 229 194 126 159 168 148 153 162 158 137 140 144 135 167 169 175 187 179 174 177 174 174 177 175 168 162 162 165 156 150 159 154 124 110 111 111 116 130 133 125 120 119 120 118 113 113 109 102 96 92 94 95 95 97 97 104 104 94 89 86 92 98 91 87 82 76 74 69 66 61 54 49 45 46 42 33 34 33 26 24 28 34 35 30 24 20 22 25 20 17 18 18 9 3 8
287 201 224 158 135 147 124 127 159 165 167 153 153 155 159 186 185 172 172 176 178 181 180 182 180 173 171 169 167 165 161 163 166 161 145 128 120 118 126 135 125 119 119 108 106 119 125 120 112 107 103 99 102 105 105 107 105 112 120 105 85 71 61 73 85 90 86 80 76 69 67 62 48 45 46 44 38 30 31 30 27 26 26 33 35 29 25 22 22 23 22 19 16 17 13 8 8
287 273 350 74 135 133 125 130 155 167 181 166 169 203 152 174 191 177 170 176 181 184 188 188 183 175 177 179 175 171 169 169 167 171 155 129 126 133 133 126 120 122 123 120 125 135 127 118 116 113 109 106 107 110 107 101 94 94 98 95 95 88 66 67 81 89 89 93 91 75 65 58 48 45 41 38 34 32 34 31 31 33 29 30 30 26 23 22 24 23 22 21 18 18 18 16 12
315 258 313 289 68 96 128 119 56 263 185 159 168 187 155 166 184 179 173 177 180 184 189 190 187 182 180 180 183 180 171 169 174 175 152 131 136 142 135 128 127 128 130 133 134 125 117 118 119 115 115 119 114 108 103 94 91 92 94 100 111 116 106 95 92 91 88 82 74 68 69 62 50 45 35 32 32 31 35 35 35 36 33 29 27 25 22 19 24 25 23 22 21 21 22 21 16
291 242 286 25 47 50 58 98 52 281 222 164 167 162 177 167 168 172 178 183 183 185 189 192 192 190 181 174 186 189 170 169 180 174 149 139 145 146 139 136 135 136 138 137 129 123 124 122 117 118 122 124 113 106 106 104 104 107 111 117 125 130 128 121 111 110 111 99 74 61 66 62 50 45 35 32 34 33 37 39 39 37 35 31 25 24 21 18 24 28 25 23 24 24 24 25 20
150 100 57 47 58 66 58 95 118 283 262 226 190 188 202 171 169 177 182 190 189 187 190 191 192 197 188 172 182 190 172 171 178 165 146 145 154 148 141 141 140 142 144 136 130 129 129 123 120 124 125 120 114 112 114 117 121 123 122 128 132 134 137 132 126 136 141 121 98 74 59 55 52 45 34 34 38 41 42 43 42 37 36 34 26 24 20 18 25 30 28 24 25 26 25 27 23
65 45 62 61 82 106 106 124 151 293 258 204 190 200 197 169 190 192 194 205 195 187 190 190 187 193 190 173 174 183 179 173 167 156 146 150 157 144 139 145 143 146 151 140 135 136 133 131 131 129 127 125 124 126 128 125 127 130 133 137 130 130 139 138 136 146 147 123 106 92 69 61 56 39 34 41 46 46 46 49 48 38 35 33 28 25 20 20 25 27 28 28 26 27 25 26 23
79 56 46 264 43 115 135 159 181 211 243 195 183 181 159 150 177 190 214 228 215 193 187 189 185 187 185 171 171 178 183 177 162 158 154 155 156 143 143 150 145 152 158 146 143 144 141 143 139 136 137 137 136 137 136 134 136 137 144 149 142 145 149 143 148 158 139 115 112 109 92 73 53 38 41 54 57 52 47 49 49 41 35 31 29 27 21 23 28 26 28 30 27 26 25 25 22
72 77 356 314 13 328 164 97 266 243 13 32 172 153 120 319 243 194 210 223 227 206 186 186 184 185 181 170 174 178 179 176 162 159 159 158 161 153 152 153 151 159 162 154 151 147 150 155 150 149 148 145 150 149 146 150 149 143 145 148 151 160 155 141 148 153 121 108 114 103 83 65 50 47 55 63 64 59 52 50 48 44 37 30 30 29 23 25 31 28 27 28 28 25 23 24 21
36 103 18 341 3 351 14 42 354 294 43 40 18 86 101 268 271 217 211 208 207 193 185 190 178 178 174 167 175 174 173 176 165 163 163 161 169 162 155 155 157 163 164 163 156 150 159 166 158 160 158 155 163 162 161 160 152 150 151 146 150 153 140 135 142 123 108 108 106 87 73 56 47 54 73 75 71 67 62 58 53 45 39 32 33 33 27 27 31 31 28 26 27 25 22 24 21
121 109 111 251 267 314 2 356 253 231 75 327 329 62 114 201 195 199 207 198 183 170 175 190 165 165 162 163 174 164 164 177 167 166 165 164 172 165 153 155 160 164 167 169 162 157 166 169 169 169 163 167 171 170 176 166 158 175 173 160 166 162 151 168 190 62 88 88 63 70 69 63 66 80 95 88 80 77 69 63 57 48 41 36 36 37 32 29 31 32 31 27 27 24 20 23 20
85 112 150 173 215 201 157 275 275 98 81 276 269 92 133 189 166 190 206 187 164 154 160 167 169 169 159 164 173 155 156 174 168 165 163 163 171 164 152 155 163 166 171 175 168 165 170 171 178 176 168 175 175 172 187 179 166 185 195 188 183 159 149 170 185 92 85 66 337 25 47 79 116 118 111 104 93 89 80 69 60 50 45 42 40 39 35 32 33 34 32 27 24 22 18 20 19
110 151 201 217 239 232 171 267 287 44 96 150 156 139 178 174 148 219 229 161 137 158 158 159 168 165 155 169 172 152 154 170 166 161 160 164 170 165 158 161 167 168 173 179 173 171 175 174 179 180 173 179 179 176 188 191 179 185 196 204 206 175 167 180 188 206 229 234 240 256 351 130 134 126 115 108 94 90 85 75 65 51 48 49 43 41 38 36 35 34 32 25 21 21 19 19 19
149 215 224 224 239 274 327 269 271 237 112 141 159 149 167 168 139 216 241 93 203 218 167 150 158 158 161 173 168 158 159 161 162 161 160 166 170 168 166 168 170 170 175 181 177 173 174 177 181 180 179 184 185 181 186 192 189 189 195 198 200 202 205 206 206 215 221 225 238 225 174 146 135 131 121 110 99 92 87 76 71 61 54 52 46 42 39 36 36 33 30 25 20 21 22 21 18
208 211 211 240 235 162 296 280 285 317 55 106 136 117 105 175 130 136 156 138 223 226 157 148 155 159 169 167 161 169 163 150 155 162 162 165 170 170 170 171 171 172 176 180 182 177 174 183 188 182 185 188 186 185 188 193 191 191 198 199 199 203 206 208 206 208 211 216 228 187 154 145 134 128 122 115 109 98 90 80 75 71 63 57 49 44 38 32 33 32 28 26 21 21 24 21 18
241 204 191 302 336 25 308 291 312 328 351 111 133 121 97 171 122 124 156 187 212 181 144 160 154 154 168 164 163 173 160 144 155 165 162 163 170 171 171 174 172 174 178 178 183 184 177 185 191 184 185 185 183 189 191 194 197 198 202 199 197 202 204 211 204 195 206 214 194 158 144 140 133 127 125 121 113 102 94 86 79 76 69 61 50 44 43 33 32 30 27 25 22 22 24 20 17
249 209 304 323 335 341 317 278 323 351 328 321 120 125 95 88 112 140 162 164 206 192 148 142 153 155 162 166 167 168 155 152 162 166 161 160 167 170 172 179 176 173 179 177 182 189 179 181 191 186 182 179 181 192 194 196 202 205 202 192 191 199 202 209 202 185 194 190 157 149 142 138 135 131 128 121 113 107 98 91 86 82 75 66 54 46 43 37 33 30 25 25 21 20 21 18 16
193 208 170 178 222 302 316 310 345 4 257 288 33 116 87 53 55 329 166 146 182 216 141 131 165 157 154 167 165 159 156 153 156 162 160 158 165 168 174 187 180 171 179 176 178 191 181 178 194 192 180 178 183 193 197 198 203 208 203 189 190 199 200 207 205 182 174 162 151 149 144 139 135 131 129 122 115 110 102 98 94 86 77 68 58 48 43 39 36 31 27 25 21 19 19 16 15
Height
767 768 765 767 765 766 763 761 777 773 771 781 765 755 745 730 734 736 740 745 749 752 746 749 753 758 765 775 779 781 783 785 790 793 802 800 794 796 796 796 797 796 796 796 796 796 796 796 797 797 797 796 796 796 795 796 796 797 797 797 797 797 797 797 797 798 798 798 798 798 798 799 799 799 798 797 796 796 797 797 797 797 796 796 796 796 796 796 795 796 795 795 795 794 794 794 793
766 767 765 766 763 767 765 758 781 778 772 780 758 749 744 731 735 743 749 751 752 751 746 749 756 762 765 769 771 778 786 786 786 790 795 795 795 797 796 798 798 797 797 797 797 797 797 797 797 798 798 797 796 796 796 797 797 797 797 797 798 798 798 798 798 798 799 799 799 799 799 799 800 800 800 800 800 799 799 798 798 798 797 797 797 796 796 796 796 796 796 796 795 795 794 794 794
765 766 764 765 761 763 763 761 779 780 776 775 753 743 739 736 742 747 749 749 749 746 747 751 760 766 767 774 775 781 791 787 785 788 792 795 797 798 799 799 798 799 798 798 798 797 798 798 798 798 798 798 797 797 798 798 798 798 798 798 799 799 799 799 799 799 799 800 800 800 800 800 800 800 801 801 801 801 800 800 799 798 798 798 797 797 796 796 796 796 796 796 795 795 794 794 794
764 765 764 762 762 763 766 770 774 776 777 767 755 746 739 744 748 748 748 748 747 747 752 756 768 770 769 782 780 783 791 789 787 788 791 795 798 798 799 800 799 799 799 799 799 799 799 799 799 799 799 799 798 799 798 799 799 799 799 800 800 800 800 800 800 800 800 801 801 801 801 801 801 801 801 801 801 801 800 800 799 799 799 798 798 798 797 797 797 796 796 796 795 795 795 795 795
765 765 763 761 766 764 765 770 767 770 772 758 754 750 743 749 751 752 751 750 749 752 756 759 773 772 772 782 780 788 794 790 789 788 791 796 797 797 797 799 800 799 800 800 799 800 800 800 800 800 800 799 799 799 799 800 800 800 800 801 801 801 801 801 801 801 801 802 801 802 802 802 802 802 802 801 801 801 801 800 800 800 799 799 799 798 798 797 797 797 796 796 796 795 795 795 795
765 765 761 759 761 758 766 775 769 764 756 744 747 747 746 751 754 757 757 755 754 755 758 763 773 775 781 785 783 790 792 791 791 790 792 796 797 796 798 799 800 800 800 800 801 801 801 801 801 801 801 800 800 800 800 801 801 801 801 802 802 802 802 802 802 802 802 802 802 803 802 802 802 802 802 802 801 801 801 800 800 800 800 799 799 799 798 798 797 797 797 796 796 795 795 795 795
764 764 759 761 761 758 774 778 768 761 748 740 746 750 751 754 756 760 764 764 763 761 761 767 770 777 788 787 789 792 790 792 791 793 795 797 799 797 799 800 801 801 801 801 802 801 802 802 801 802 801 801 801 801 802 802 802 802 802 803 803 803 803 803 803 803 803 803 803 803 803 803 803 803 803 802 802 801 801 801 801 801 800 800 799 799 798 798 797 797 797 796 796 795 795 795 795
762 763 757 764 769 765 774 772 762 755 744 740 746 752 754 756 758 763 768 770 770 769 769 771 770 781 791 786 793 796 792 794 793 796 797 798 800 799 801 801 802 802 802 802 802 802 802 802 802 802 802 802 802 802 803 803 803 803 804 804 804 804 804 804 804 804 804 804 804 804 804 804 804 803 803 803 802 802 802 802 801 801 801 800 800 799 798 798 797 797 796 796 795 795 795 794 795
758 761 759 765 771 768 770 766 758 747 739 740 746 751 754 757 761 765 770 772 772 773 776 774 771 785 793 789 796 797 794 797 796 797 797 799 801 800 802 802 803 802 801 801 801 802 801 802 802 802 802 803 803 803 804 804 804 804 805 804 804 805 805 805 805 805 805 805 805 805 805 805 805 804 804 803 803 802 802 802 802 802 801 801 800 799 799 798 797 797 796 795 795 795 795 795 795
756 758 761 766 770 772 769 762 751 741 738 739 745 750 755 759 763 767 772 775 773 775 780 775 776 786 791 794 799 798 798 798 796 797 797 800 800 801 802 802 802 801 802 802 803 803 802 803 802 803 804 804 804 804 805 805 805 805 805 805 806 806 806 807 806 806 806 806 806 806 806 806 806 805 804 804 803 803 803 803 802 802 801 801 800 800 799 798 798 797 796 795 795 795 795 795 795
760 756 757 769 774 775 768 756 744 738 739 740 745 750 755 760 765 771 772 776 774 777 783 779 784 788 791 800 802 799 799 798 798 798 798 799 800 801 801 801 801 802 805 805 805 804 804 805 804 805 804 805 805 805 806 806 806 806 806 806 807 807 807 807 807 807 807 807 807 807 807 806 806 805 805 804 804 804 804 804 803 803 802 802 801 801 800 799 798 797 797 795 795 795 795 795 795
764 760 757 772 773 767 758 750 745 740 741 746 753 754 755 761 769 775 774 781 783 785 787 785 787 787 797 806 803 799 797 799 799 799 800 800 801 801 802 802 803 805 807 808 808 806 806 807 806 807 806 807 807 807 807 807 807 807 807 808 808 808 808 808 808 808 808 808 808 808 807 807 807 806 806 805 805 805 805 804 804 803 803 802 802 801 800 799 799 798 797 796 796 795 795 795 795
763 760 760 770 762 757 751 749 750 746 751 757 762 758 757 763 770 773 775 785 789 793 792 786 785 786 800 806 801 798 797 799 799 800 801 801 802 803 803 804 806 807 808 809 808 808 809 809 809 808 807 807 808 808 808 808 808 808 809 809 809 809 809 809 809 809 809 809 809 808 808 807 807 807 807 806 806 806 805 805 804 804 803 803 802 802 801 800 799 798 798 797 796 796 796 796 796
756 752 757 766 757 754 750 752 753 754 766 765 763 761 760 766 769 772 778 788 793 794 793 786 783 790 802 805 803 800 797 799 799 800 800 801 804 803 804 805 807 808 809 808 807 809 810 811 810 808 808 809 809 809 809 809 809 809 810 809 810 810 809 810 810 810 810 809 809 809 808 808 808 808 808 807 807 806 806 806 805 804 804 803 803 802 802 801 800 799 798 798 797 797 797 797 796
749 746 753 763 761 755 747 751 751 757 773 766 762 763 765 770 771 778 783 791 796 790 789 786 784 792 801 803 804 800 799 800 799 800 799 801 804 804 805 804 806 807 808 808 807 809 810 811 810 809 809 809 810 810 810 810 811 811 810 811 810 810 810 811 811 810 810 810 810 809 809 809 809 808 808 808 807 807 807 806 806 805 805 804 804 803 802 802 801 800 799 798 798 797 797 797 797
744 747 757 764 763 760 750 751 753 763 775 767 764 764 771 778 775 785 787 787 794 788 788 790 787 791 796 797 800 799 800 801 799 800 799 802 805 805 805 805 806 805 806 808 809 811 811 810 810 811 810 810 811 811 811 811 812 812 812 812 811 811 811 811 811 811 811 811 810 810 809 809 809 809 809 808 808 808 807 807 806 806 806 805 805 804 803 802 801 800 799 799 798 798 798 797 797
742 752 764 766 762 765 762 761 764 770 773 768 767 766 776 784 780 786 786 785 792 791 791 792 790 791 793 796 798 799 800 800 800 801 801 804 807 807 807 806 806 805 806 807 809 812 812 811 811 811 811 811 810 810 811 812 813 813 813 812 812 812 812 812 812 811 811 811 811 810 810 810 810 810 809 809 809 809 808 808 807 807 806 806 805 804 804 803 802 801 799 799 798 798 798 797 797
749 758 765 768 765 766 765 765 766 767 771 771 771 770 778 786 785 785 787 790 793 793 793 793 794 793 794 796 798 799 801 801 801 802 802 805 807 809 809 808 807 807 807 808 808 809 811 812 812 811 810 810 810 810 811 812 814 813 813 813 813 813 812 813 812 811 811 811 811 810 810 810 810 810 810 810 809 810 809 809 808 808 807 806 806 805 804 803 802 801 800 799 798 798 797 796 797
755 761 763 770 770 765 762 763 764 765 770 771 771 774 780 786 785 784 790 796 794 795 796 794 797 797 796 796 798 800 801 803 804 805 806 807 809 810 810 809 809 809 808 809 809 808 810 812 813 811 810 810 810 811 813 814 814 814 814 814 813 813 813 813 813 812 812 811 812 811 811 811 811 811 811 811 810 810 810 809 809 808 807 807 806 805 805 804 802 801 800 799 798 798 797 796 796
754 760 766 768 766 764 763 763 764 766 768 769 773 777 781 784 783 784 789 795 794 795 796 795 799 799 798 798 798 801 802 805 808 809 810 810 811 811 811 810 810 810 810 809 808 809 810 812 813 813 812 812 811 812 814 815 815 815 815 815 814 815 814 814 814 814 813 813 813 812 812 812 813 812 812 812 811 811 810 810 809 809 809 808 807 806 805 804 803 802 800 800 798 798 797 797 797
753 759 768 765 762 767 767 765 765 766 767 770 775 779 784 784 783 785 788 795 797 794 793 795 798 799 799 800 800 802 803 807 810 811 811 811 811 811 811 811 811 810 810 809 810 810 811 812 813 813 814 813 814 815 816 815 815 816 815 815 815 815 815 815 815 814 814 814 813 814 814 814 814 813 813 813 812 812 811 811 810 810 810 809 808 807 806 805 804 802 801 800 799 798 798 797 797
758 760 763 764 764 771 770 766 768 768 768 773 778 783 787 785 785 787 789 796 798 795 793 793 796 798 799 800 801 804 805 807 809 809 812 813 812 812 812 812 811 811 811 810 810 811 812 813 814 814 814 814 816 817 817 817 816 816 816 816 816 816 816 815 815 815 814 814 815 815 815 815 814 814 814 813 813 813 812 812 812 812 811 810 810 809 808 806 805 804 803 802 800 799 798 798 797
764 767 764 766 767 770 771 768 770 770 771 777 781 784 784 785 790 790 791 797 797 794 793 794 797 798 798 800 802 805 806 808 809 809 813 815 813 812 812 812 812 811 812 811 811 812 812 813 814 814 815 816 817 817 817 817 817 818 818 818 817 817 817 816 816 816 815 815 816 816 815 815 815 815 815 814 814 814 814 814 813 813 812 812 811 810 809 807 806 805 804 803 802 800 799 798 798
765 772 771 770 768 770 771 770 773 772 775 779 780 783 785 789 793 792 794 797 795 795 795 796 800 800 799 802 804 806 807 809 811 812 813 815 813 812 813 812 812 812 812 812 812 812 813 814 814 815 816 817 817 818 818 818 818 819 819 819 819 818 818 818 817 817 817 817 817 818 817 816 816 816 816 816 815 815 815 815 815 814 813 813 812 811 810 808 807 806 805 804 802 801 800 799 798
767 773 773 771 771 772 772 773 776 776 778 779 782 787 790 790 792 795 798 798 796 797 798 799 800 802 803 804 805 806 807 809 812 812 812 814 814 812 812 811 811 812 812 813 813 813 814 815 815 816 817 818 818 818 818 819 819 820 820 820 820 819 819 818 818 818 818 819 819 819 819 818 818 817 817 817 817 817 817 816 816 815 814 813 812 812 810 809 808 807 806 805 803 802 801 800 799
770 772 774 774 775 775 775 776 778 779 780 782 786 791 792 792 793 798 799 798 798 798 800 802 802 805 805 806 808 807 807 809 811 813 812 812 812 811 810 810 811 812 813 813 813 814 815 816 817 817 818 818 819 819 819 820 820 820 820 820 820 820 819 819 820 820 819 820 821 821 820 820 819 819 818 818 818 818 818 817 817 816 816 815 813 813 812 810 809 808 807 806 804 803 802 801 801
766 771 774 774 777 776 776 780 781 782 783 783 787 793 794 791 794 802 800 798 801 800 803 805 805 806 807 807 809 809 809 810 812 815 813 810 810 810 810 810 812 812 813 814 814 815 816 816 817 818 818 819 819 819 819 820 820 820 820 820 821 821 821 820 821 821 820 821 822 822 822 821 821 820 819 819 819 819 819 819 818 817 817 816 815 814 813 812 811 809 808 807 805 804 803 802 801
765 771 774 774 776 778 779 783 784 783 786 784 786 792 792 792 797 802 800 800 803 802 805 808 808 807 807 808 808 810 811 811 813 813 811 810 810 810 810 811 811 813 814 814 815 816 816 817 818 819 819 819 819 819 819 820 820 820 820 821 822 822 822 822 822 823 822 822 823 823 823 823 822 821 821 821 821 821 821 820 820 819 818 817 816 815 814 813 812 810 809 808 806 805 804 803 802
766 773 783 783 779 784 783 784 785 784 788 784 785 795 797 797 801 801 800 802 804 804 806 809 808 807 808 808 808 809 810 810 810 810 810 810 810 809 810 811 812 813 814 815 815 816 817 818 818 819 819 820 819 819 820 820 820 820 821 822 822 823 823 823 823 823 823 823 823 824 824 824 823 823 822 822 822 822 822 822 821 820 820 819 817 816 815 814 813 812 810 809 807 806 805 804 804
771 779 792 792 792 795 785 782 786 785 788 783 787 805 808 803 802 802 801 801 803 805 807 807 808 808 808 808 808 808 808 808 808 808 809 809 810 810 811 811 812 813 813 815 816 816 817 818 819 820 820 820 820 820 821 821 821 822 823 823 823 824 824 825 824 824 825 824 824 826 825 825 825 824 824 824 824 824 823 823 822 822 821 820 819 818 817 816 814 813 812 811 809 808 807 805 804
780 788 792 793 802 802 784 781 786 787 789 784 789 807 809 804 802 802 802 801 802 805 807 807 808 808 808 807 807 808 807 808 809 808 808 809 810 810 811 812 812 813 813 815 816 817 818 818 819 820 820 820 820 821 821 822 823 823 824 825 825 825 825 826 826 826 826 825 826 827 827 827 826 826 825 825 825 825 825 824 824 823 822 821 820 819 818 817 816 814 813 812 810 809 808 807 806
787 796 797 794 799 798 786 781 782 786 789 784 792 806 806 803 802 801 802 802 802 806 808 808 809 808 807 806 806 808 808 808 809 808 809 809 810 811 811 812 812 813 814 815 816 817 818 819 819 820 820 821 821 822 822 823 824 824 825 825 826 826 826 827 827 827 828 828 828 828 828 828 827 827 827 827 827 826 826 825 825 825 824 822 821 820 820 818 817 816 814 813 811 810 809 808 807
788 793 797 796 796 796 791 784 777 780 786 786 793 802 804 802 801 802 802 802 801 805 808 807 808 807 805 806 805 806 808 809 808 808 809 809 810 811 811 812 813 814 814 815 816 817 818 819 820 821 821 822 822 823 824 824 825 825 826 826 827 827 828 828 828 829 829 829 830 830 830 829 829 829 828 828 828 827 827 827 826 826 825 824 823 822 821 820 819 818 816 814 813 811 810 808 807
789 788 793 795 794 794 794 787 778 778 784 788 790 795 800 799 801 802 803 803 801 802 806 806 806 805 804 804 805 806 807 808 808 808 809 809 810 811 812 813 814 814 815 815 816 817 819 820 821 822 822 823 824 824 825 825 825 826 827 827 828 828 829 829 830 830 831 831 831 831 831 831 831 830 830 830 829 829 828 828 827 827 826 825 824 823 822 821 820 819 817 816 814 813 811 810 808
787 793 796 799 794 791 793 789 779 778 785 788 789 795 799 797 800 803 803 804 803 801 803 804 803 803 803 803 804 806 807 807 807 807 808 809 811 812 813 814 814 815 815 816 817 818 819 821 822 823 824 825 825 825 825 826 826 826 827 828 829 830 831 831 832 832 832 832 832 832 832 832 832 832 831 831 830 830 830 829 829 828 827 826 826 824 823 823 821 821 819 817 816 815 813 811 810
783 795 801 804 798 788 784 782 776 776 786 789 789 795 799 799 799 801 802 802 802 802 801 802 803 802 802 802 804 806 806 807 806 806 807 809 811 813 813 814 815 815 816 816 818 819 820 822 823 824 825 826 826 826 826 826 827 827 827 829 830 831 832 833 833 833 833 833 833 833 833 832 833 833 832 832 832 831 831 830 830 829 829 828 827 826 825 824 823 822 821 819 818 816 814 813 812
776 795 805 802 797 790 780 775 773 775 788 792 787 792 797 798 799 798 799 801 801 801 801 801 801 802 803 802 804 805 805 805 804 804 806 810 812 813 814 815 816 816 817 817 819 820 821 823 824 825 826 827 826 826 827 827 828 828 829 830 831 832 833 834 834 835 834 834 834 834 833 833 833 833 833 833 833 833 832 832 831 830 830 829 828 827 826 825 824 823 822 821 819 817 816 814 813
771 788 798 792 788 788 779 773 773 775 788 794 788 793 798 796 797 796 797 801 801 799 799 800 799 800 803 803 803 804 803 802 801 802 805 809 810 812 814 815 816 817 818 818 820 821 823 824 825 826 827 828 828 827 828 829 829 830 830 831 833 833 834 835 835 836 836 835 835 835 834 834 834 834 834 834 834 834 833 833 832 831 831 830 830 829 828 827 826 825 823 822 821 819 817 816 815
771 778 785 785 778 778 777 770 771 774 785 795 792 795 799 794 793 795 795 797 797 796 797 799 798 798 801 803 802 802 802 801 801 803 805 806 807 810 814 815 817 818 819 820 821 823 824 825 826 827 828 828 828 829 829 831 831 832 832 833 834 835 836 836 836 836 837 837 837 836 836 836 836 836 835 835 835 835 835 834 833 832 832 831 831 830 829 828 827 826 825 823 822 821 820 819 818
771 775 782 781 773 783 789 776 772 776 781 793 798 799 798 795 796 796 793 791 791 792 793 795 797 797 799 800 800 800 801 802 803 804 805 806 808 811 814 816 818 819 819 821 822 824 825 826 827 828 828 829 829 830 831 832 833 833 834 834 835 836 836 836 837 838 838 838 838 838 838 838 838 838 837 837 836 836 836 835 834 833 833 832 832 831 830 829 828 828 827 825 824 823 822 821 820
767 770 778 776 770 778 782 773 773 777 779 785 799 813 809 799 801 799 791 790 791 790 791 794 796 796 797 797 799 799 800 802 804 804 805 807 809 812 814 817 818 819 820 821 822 824 825 827 828 829 829 830 831 832 833 833 833 834 834 835 836 836 837 837 838 839 839 839 839 839 839 839 839 839 838 838 838 838 837 836 835 834 834 833 832 832 832 831 830 829 829 827 826 825 824 823 822
767 763 763 763 766 769 770 772 777 786 793 784 789 817 819 800 797 796 791 793 794 793 793 795 796 795 796 797 798 799 800 802 802 802 804 807 810 813 815 816 818 819 821 822 823 824 826 827 828 830 830 831 832 832 833 834 834 835 835 836 837 837 838 839 839 840 840 840 840 840 840 840 840 840 839 839 839 839 838 837 836 835 835 834 833 833 833 832 831 831 830 829 828 827 826 825 824
774 761 751 755 759 765 770 775 783 796 800 784 782 807 815 803 797 791 789 793 794 794 795 794 794 795 796 796 796 797 798 800 801 802 803 806 810 813 815 817 818 820 822 823 824 825 826 828 829 830 831 832 832 833 833 834 834 835 836 837 838 839 840 840 840 841 841 841 841 841 841 841 841 841 841 841 840 839 839 838 837 837 836 835 835 834 834 833 833 832 832 831 830 829 828 827 826
773 754 749 756 758 768 775 777 787 789 782 778 777 787 802 806 797 784 783 790 792 792 793 792 792 793 794 794 795 795 796 799 800 801 802 805 810 812 815 817 819 821 822 823 824 825 826 828 829 830 831 832 832 833 834 835 835 836 837 838 839 840 841 841 841 842 842 842 842 842 842 842 842 842 842 841 841 840 840 839 838 838 837 837 836 835 835 834 834 833 833 832 831 831 830 829 828
763 748 749 757 764 779 781 782 792 783 780 793 785 779 801 808 789 778 781 786 791 791 790 790 788 788 790 793 795 793 793 797 798 798 801 805 809 812 815 817 819 821 822 823 824 825 827 828 830 831 831 832 833 834 835 836 836 837 838 839 839 840 841 841 842 842 842 842 842 843 843 843 843 843 843 842 842 841 841 840 839 839 838 837 837 836 836 835 834 834 833 833 832 832 831 831 830
752 743 752 761 769 779 782 788 793 787 794 804 791 782 801 810 790 780 784 785 787 786 784 784 784 784 785 789 793 792 791 794 795 797 801 805 808 811 814 816 819 821 821 823 824 826 828 828 830 831 832 833 834 835 836 836 837 837 838 839 839 840 840 841 842 842 842 842 843 843 843 844 843 843 843 843 843 842 841 841 840 839 839 838 838 837 837 836 835 835 835 835 834 833 833 832 832
746 749 759 767 771 775 784 789 788 802 807 792 785 780 787 804 798 784 783 780 776 777 778 778 778 781 782 785 790 790 790 792 794 797 801 805 808 810 814 816 818 820 821 822 824 826 828 829 830 831 832 833 834 835 836 836 837 837 838 839 839 839 840 841 842 842 842 842 843 843 844 844 844 843 843 843 843 842 842 841 840 840 840 839 839 838 837 837 836 836 836 836 835 835 834 833 833
748 760 768 776 779 777 788 790 788 809 806 781 779 775 778 800 796 779 775 770 765 768 772 773 774 777 777 780 786 787 789 790 792 797 801 804 808 809 813 816 817 820 821 822 824 826 828 829 830 831 832 833 834 835 836 836 837 838 838 838 838 839 839 840 841 841 841 842 843 843 843 844 844 844 844 843 843 842 842 841 841 841 840 840 839 839 838 838 837 837 837 837 836 836 835 835 834
757 767 777 789 795 793 799 800 798 802 794 784 780 770 781 797 782 770 769 764 762 761 762 766 768 771 773 777 782 784 786 789 791 796 800 803 806 808 811 814 817 819 820 822 823 825 827 828 830 831 832 833 834 835 836 836 837 837 838 838 838 839 839 840 840 841 841 842 843 843 843 844 844 844 844 844 843 843 842 842 841 841 841 841 840 840 839 839 839 838 838 838 837 837 836 836 835
768 773 784 796 804 811 815 811 810 804 795 796 783 770 791 799 775 765 763 758 757 754 753 757 761 765 769 773 778 782 783 786 791 795 799 802 804 806 810 812 815 818 819 821 822 824 827 828 829 830 832 833 834 835 836 836 837 837 838 838 838 839 839 840 840 841 841 842 842 843 843 843 843 844 844 844 843 843 842 842 842 842 842 841 841 841 840 840 840 839 839 839 838 838 837 837 836
765 765 776 792 797 805 813 811 813 811 805 802 786 781 798 796 774 759 754 752 752 753 754 752 755 760 764 770 775 780 784 785 789 793 796 800 802 804 808 810 814 816 818 820 821 824 825 827 828 830 831 833 834 835 835 836 837 837 838 838 838 839 840 840 841 841 841 842 842 842 843 843 843 844 844 844 844 843 843 843 843 842 842 842 841 841 841 841 841 840 840 840 839 839 838 837 837
764 761 773 785 778 781 796 795 788 795 812 808 789 786 783 770 760 748 745 748 746 751 756 754 758 759 761 770 773 777 784 786 788 792 795 798 801 803 806 809 812 815 817 818 820 822 824 826 828 828 830 832 833 834 835 836 836 837 837 838 838 839 840 840 841 841 841 842 842 842 842 843 843 843 843 843 843 843 843 843 843 843 842 842 842 842 842 842 841 841 841 840 840 839 839 838 837
765 768 775 768 754 761 784 791 777 785 814 808 787 786 776 762 762 750 743 748 748 750 753 754 758 758 762 769 770 774 783 786 787 790 793 797 799 802 804 807 811 813 816 817 818 821 823 825 826 828 829 831 832 833 834 835 836 837 837 837 838 839 839 840 840 841 841 841 842 842 842 842 842 843 843 843 843 843 844 844 843 843 843 843 843 843 843 842 842 842 841 841 840 840 839 838 838
763 773 766 753 752 755 767 787 790 788 804 801 787 787 781 776 777 759 747 756 760 755 749 751 756 759 764 767 768 773 779 784 786 787 792 795 797 800 802 805 809 811 814 816 817 819 821 823 825 826 828 829 831 832 833 835 835 836 837 837 838 838 839 840 840 840 841 841 842 842 842 842 842 843 843 843 843 843 844 844 844 844 843 843 844 843 843 843 842 842 842 841 841 840 839 839 838
750 756 749 752 772 777 770 782 791 786 792 801 796 786 778 777 773 761 757 762 762 754 748 751 755 758 763 764 767 771 774 781 786 786 790 793 795 799 800 803 807 810 813 815 816 818 820 822 823 824 826 827 829 831 832 834 834 835 836 836 837 838 838 839 839 840 840 840 841 841 841 842 842 843 843 843 843 843 844 844 844 844 844 844 844 844 844 843 843 843 842 842 841 840 840 839 838
739 744 750 754 764 774 773 771 778 785 790 795 797 792 781 769 759 757 761 758 754 754 752 752 753 755 760 761 765 768 771 778 783 785 788 790 793 797 799 802 805 808 812 813 815 817 817 820 821 822 825 826 828 830 831 833 833 834 835 835 836 837 837 838 838 839 839 840 840 840 841 842 842 843 843 843 844 844 844 844 844 844 844 844 844 844 844 844 843 843 842 842 841 840 840 839 838
752 759 768 766 758 762 768 764 763 779 793 790 791 797 783 759 749 752 755 753 750 751 752 754 752 752 756 759 761 764 768 774 778 781 784 788 792 795 798 801 802 806 810 811 814 815 816 818 820 821 823 824 826 829 830 831 832 833 833 834 835 836 836 837 837 838 839 839 839 839 840 841 842 843 843 843 844 844 844 844 844 845 844 845 845 844 844 844 843 843 842 842 841 841 840 839 839
754 760 763 765 764 766 779 782 766 765 782 780 781 797 785 752 743 746 744 747 748 746 748 754 754 751 753 755 757 761 766 770 774 777 781 786 790 794 797 798 799 803 806 809 812 814 814 816 818 819 821 823 825 827 828 830 831 832 832 833 834 835 835 836 836 837 837 837 838 839 840 841 841 843 843 843 844 844 844 844 844 845 845 845 845 845 845 844 843 843 842 842 841 841 840 840 839